Location: Oklahoma City
(35.4680°N, 97.5160°W)
Time: 19:59:12
(UTC-05:00)

ISS - All Passes

Search period start: 27 July 2016 00:00
Search period end: 06 August 2016 00:00
Orbit: 401 x 404 km, 51.6° (Epoch: 27 July)

Date Brightness Start Highest point End Pass type
(mag) Time Alt. Az. Time Alt. Az. Time Alt. Az.
27 Jul - 04:32:11 10° NNW 04:35:06 29° NE 04:38:00 10° E visible
27 Jul - 06:08:49 10° WNW 06:11:25 22° SW 06:13:59 10° S visible
27 Jul - 21:09:10 10° SSW 21:12:16 44° SE 21:15:23 10° ENE visible
27 Jul - 22:46:29 10° WNW 22:48:51 18° NNW 22:51:13 10° NNE visible
28 Jul - 03:39:43 10° NNW 03:42:00 17° NNE 03:44:16 10° ENE visible
28 Jul - 05:15:27 10° WNW 05:18:36 48° SW 05:21:45 10° SSE visible
28 Jul - 20:17:00 10° S 20:19:29 20° SE 20:21:58 10° E daylight
28 Jul - 21:52:49 10° W 21:55:45 31° NW 21:58:43 10° NNE visible
29 Jul - 02:47:41 10° N 02:48:48 11° NNE 02:49:55 10° NE night (unlit)
29 Jul - 04:22:28 10° NW 04:25:43 73° NE 04:28:57 10° SE visible
29 Jul - 20:59:32 10° WSW 21:02:45 64° NW 21:05:59 10° NE visible
29 Jul - 22:38:59 10° NW 22:39:44 11° NNW 22:40:28 10° N visible
30 Jul - 03:29:42 10° NNW 03:32:44 34° NE 03:35:45 10° ESE night (unlit)
30 Jul - 05:06:40 10° W 05:08:58 18° SW 05:11:15 10° S night (unlit)
30 Jul - 20:06:40 10° SW 20:09:51 56° SE 20:13:03 10° NE daylight
30 Jul - 21:44:23 10° WNW 21:46:31 16° NNW 21:48:39 10° NNE visible
31 Jul - 02:37:10 10° NNW 02:39:39 20° NNE 02:42:08 10° E night (unlit)
31 Jul - 04:13:07 10° WNW 04:16:11 38° SW 04:19:13 10° SSE night (unlit)
31 Jul - 19:14:18 10° S 19:17:01 25° SE 19:19:45 10° ENE daylight
31 Jul - 20:50:34 10° W 20:53:23 26° NW 20:56:13 10° NNE daylight
01 Aug - 01:44:56 10° N 01:46:28 13° NNE 01:48:01 10° NE night (unlit)
01 Aug - 03:20:02 10° NW 03:23:18 89° SW 03:26:33 10° SE night (unlit)
01 Aug - 18:22:59 10° SSE 18:24:17 12° SE 18:25:34 10° ESE daylight
01 Aug - 19:57:10 10° WSW 20:00:20 51° NW 20:03:32 10° NE daylight
02 Aug - 02:27:14 10° NW 02:30:20 41° NE 02:33:26 10° ESE night (unlit)
02 Aug - 04:04:36 10° W 04:06:29 15° SW 04:08:22 10° SSW night (unlit)
02 Aug - 19:04:10 10° SW 19:07:24 71° SE 19:10:39 10° NE daylight
02 Aug - 20:42:17 10° WNW 20:44:09 14° NNW 20:46:01 10° N daylight
03 Aug - 01:34:36 10° NNW 01:37:16 23° NNE 01:39:56 10° E night (unlit)
03 Aug - 03:10:47 10° WNW 03:13:43 30° SW 03:16:37 10° SSE night (unlit)
03 Aug - 18:11:38 10° SSW 18:14:33 30° SE 18:17:28 10° ENE daylight
03 Aug - 19:48:19 10° W 19:50:59 23° NNW 19:53:40 10° NNE daylight
04 Aug - 00:42:14 10° N 00:44:07 14° NNE 00:45:58 10° ENE visible
04 Aug - 02:17:37 10° NW 02:20:51 71° SW 02:24:04 10° SE night (unlit)
04 Aug - 17:19:52 10° SSE 17:21:46 15° SE 17:23:40 10° E daylight
04 Aug - 18:54:48 10° WSW 18:57:55 42° NW 19:01:02 10° NE daylight
05 Aug - 01:24:43 10° NW 01:27:54 51° NE 01:31:05 10° ESE night (unlit)
05 Aug - 03:02:42 10° WSW 03:03:59 12° SW 03:05:15 10° SSW night (unlit)
05 Aug - 18:01:41 10° SW 18:04:56 89° SE 18:08:12 10° NE daylight
05 Aug - 19:40:14 10° NW 19:41:46 13° NNW 19:43:18 10° N daylight
